weather.gov     
National Weather Service

Terminal Aerodrome Forecast
NWS Homepage
This page is being discontinued on March 12, 2014.
The same data is available at this site. Please update your bookmarks.
Thank you, and we apologize for the inconvenience.
Please send an email to SR-SRH.Webmaster@noaa.gov with any concerns.


Current Version
Previous Version:    01  02  03  04  05  06  07  08  09  10  11  12  13  14  
[Printable]
107
FTUS41 KBOX 230543
TAFBDL
TAF
KBDL 230543Z 2306/2412 36014G21KT P6SM -SHRA BKN013 OVC025
      WS020/04040KT
     FM230900 01015G26KT 3SM SHRA BR OVC015
     FM231800 36013G26KT P6SM OVC015
     FM240000 35011G23KT P6SM OVC025
     FM240300 34010G21KT 3SM BR OVC050=




107
FTUS41 KBOX 230543
TAFBDL
TAF
KBDL 230543Z 2306/2412 36014G21KT P6SM -SHRA BKN013 OVC025
      WS020/04040KT
     FM230900 01015G26KT 3SM SHRA BR OVC015
     FM231800 36013G26KT P6SM OVC015
     FM240000 35011G23KT P6SM OVC025
     FM240300 34010G21KT 3SM BR OVC050=


U.S. Dept. of Commerce
NOAA National Weather Service
1325 East West Highway
Silver Spring, MD 20910
E-mail: w-nws.webmaster@noaa.gov
Page last modified: May 16, 2007
NATIONAL WEATHER SERVICE: for Safety, for Work, for Fun - FOR LIFE